CW1248 Weather Reports


Display with metric or nautical units.
time (UTC)temp
F
wind
direction
speed
MPH
gust
MPH
rain 1hr
in
rain 24hr
in
rain mn
in
humidity
%
barometer
mb
20260901233024 79 265 1.0 4.0 0.00 0.00 0.00 75 1014.1
20260901231528 79 221 0.0 3.0 0.00 0.00 0.00 74 1014.1
20260901230027 80 221 1.0 3.0 0.00 0.00 0.00 75 1014.1
20260901224522 81 280 2.0 4.0 0.00 0.00 0.00 70 1014.1
20260901223024 81 265 1.0 3.0 0.00 0.00 0.00 70 1014.1
20260901221531 82 286 2.0 4.0 0.00 0.00 0.00 69 1014.2
20260901220037 82 249 1.0 3.0 0.00 0.00 0.00 68 1014.1
20260901214523 83 234 1.0 3.0 0.00 0.00 0.00 63 1014.1
20260901213039 83 287 2.0 6.0 0.00 0.00 0.00 61 1014.1
20260901211527 82 255 3.0 7.0 0.00 0.00 0.00 62 1014.2
20260901210019 82 236 2.0 5.0 0.00 0.00 0.00 66 1014.2
20260901204523 82 212 1.0 2.0 0.00 0.00 0.00 67 1014.3
20260901203030 82 304 2.0 5.0 0.00 0.00 0.00 59 1014.3
20260901201531 82 280 2.0 4.0 0.00 0.00 0.00 59 1014.8
20260901200030 82 275 2.0 4.0 0.00 0.00 0.00 62 1014.6
20260901194526 82 309 0.0 3.0 0.00 0.00 0.00 61 1014.5
20260901193028 82 232 2.0 5.0 0.00 0.00 0.00 61 1014.9
20260901191537 82 226 2.0 6.0 0.00 0.00 0.00 58 1014.9
20260901190034 83 198 2.0 6.0 0.00 0.00 0.00 56 1014.9
20260901184540 84 193 2.0 5.0 0.00 0.00 0.00 54 1014.8
20260901183036 85 321 2.0 6.0 0.00 0.00 0.00 53 1014.4
20260901181534 84 336 1.0 7.0 0.00 0.00 0.00 54 1014.8
20260901180023 83 273 2.0 5.0 0.00 0.00 0.00 51 1015.3
20260901174525 82 249 2.0 6.0 0.00 0.00 0.00 55 1015.4
20260901173023 81 309 2.0 5.0 0.00 0.00 0.00 63 1015.5
20260901171518 81 273 2.0 8.0 0.00 0.00 0.00 56 1015.6
20260901170024 80 265 2.0 7.0 0.00 0.00 0.00 62 1015.6
20260901164526 79 257 2.0 8.0 0.00 0.00 0.00 64 1015.6
20260901163023 78 246 4.0 9.0 0.00 0.00 0.00 66 1015.9
20260901161527 77 238 1.0 7.0 0.00 0.00 0.00 70 1015.7
20260901160025 76 265 3.0 6.0 0.00 0.00 0.00 68 1015.7
20260901154524 75 221 1.0 8.0 0.00 0.00 0.00 71 1015.7
20260901153026 74 325 2.0 5.0 0.00 0.00 0.00 75 1015.5
20260901151523 73 249 2.0 6.0 0.00 0.00 0.00 77 1015.7
20260901150010 72 210 2.0 6.0 0.00 0.00 0.00 80 1015.9
20260901144507 71 265 1.0 5.0 0.00 0.00 0.00 86 1016.0
20260901143007 69 254 2.0 5.0 0.00 0.00 0.00 90 1016.0
20260901141535 67 208 2.0 5.0 0.00 0.00 0.00 93 1016.1
20260901140009 66 9 2.0 6.0 0.00 0.00 0.00 94 1016.2
20260901134512 65 226 1.0 4.0 0.00 0.00 0.00 95 1016.2
20260901133018 64 218 1.0 5.0 0.00 0.00 0.00 95 1016.3
20260901131511 63 265 2.0 4.0 0.00 0.00 0.00 95 1016.2
20260901130007 63 249 1.0 4.0 0.00 0.00 0.00 95 1015.9
20260901124516 62 238 2.0 5.0 0.00 0.00 0.00 95 1015.9
20260901123028 62 330 1.0 6.0 0.00 0.00 0.00 95 1015.8
20260901121523 62 265 1.0 4.0 0.00 0.00 0.00 95 1015.6
20260901120011 62 298 1.0 7.0 0.00 0.00 0.00 95 1015.5
20260901114518 62 221 1.0 3.0 0.00 0.00 0.00 95 1015.3
20260901113011 63 218 2.0 5.0 0.00 0.00 0.00 95 1015.1
20260901111507 63 257 2.0 4.0 0.00 0.00 0.00 95 1014.7
20260901110017 63 193 1.0 4.0 0.00 0.00 0.00 95 1014.5
20260901104524 63 232 2.0 5.0 0.00 0.00 0.00 95 1014.6
20260901103024 63 217 2.0 7.0 0.00 0.00 0.00 95 1014.6
20260901101520 63 232 3.0 5.0 0.00 0.00 0.00 95 1014.6
20260901100017 63 255 1.0 4.0 0.00 0.00 0.00 94 1014.4
20260901094510 64 232 2.0 6.0 0.00 0.00 0.00 94 1014.4
20260901093030 63 210 4.0 6.0 0.00 0.00 0.00 95 1014.4
20260901091510 62 249 2.0 4.0 0.00 0.00 0.00 93 1014.4
20260901090023 62 221 1.0 4.0 0.00 0.00 0.00 93 1014.4
20260901084526 62 243 1.0 4.0 0.00 0.00 0.00 93 1014.4
20260901083017 62 238 2.0 3.0 0.00 0.00 0.00 92 1014.4
20260901081522 63 205 1.0 3.0 0.00 0.00 0.00 92 1014.3
20260901080026 63 316 1.0 2.0 0.00 0.00 0.00 92 1014.3
20260901074529 63 265 0.0 3.0 0.00 0.00 0.00 92 1014.3
20260901073033 64 212 0.0 2.0 0.00 0.00 0.00 92 1014.3
20260901071518 64 217 1.0 3.0 0.00 0.00 0.00 92 1014.5
20260901070034 64 221 1.0 3.0 0.00 0.00 0.00 92 1014.8
20260901064527 65 298 1.0 2.0 0.00 0.00 0.00 92 1014.7
20260901063039 65 205 1.0 2.0 0.00 0.00 0.00 92 1014.9
20260901061520 65 209 1.0 4.0 0.00 0.00 0.00 92 1015.0
20260901060032 66 298 1.0 5.0 0.00 0.00 0.00 92 1014.7
20260901054534 66 227 1.0 4.0 0.00 0.00 0.00 91 1014.8
20260901053003 66 221 2.0 4.0 0.00 0.00 0.00 91 1014.7
20260901051524 66 230 2.0 4.0 0.00 0.00 0.00 90 1014.4
20260901050007 66 247 1.0 3.0 0.00 0.00 0.00 90 1014.2
20260901044509 67 236 2.0 3.0 0.00 0.00 0.00 88 1014.0
20260901043014 67 205 1.0 4.0 0.00 0.00 0.00 88 1013.8
20260901041508 67 221 0.0 3.0 0.00 0.00 0.00 87 1013.7
20260901040006 68 265 0.0 2.0 0.00 0.00 0.00 87 1013.9
20260901034520 68 146 1.0 3.0 0.00 0.00 0.00 87 1014.1
20260901033024 69 153 1.0 3.0 0.00 0.00 0.00 86 1014.1
20260901031529 69 298 0.0 3.0 0.00 0.00 0.00 85 1014.0
20260901030009 70 215 1.0 3.0 0.00 0.00 0.00 84 1014.1
20260901024514 70 234 2.0 5.0 0.00 0.00 0.00 84 1014.0
20260901023013 71 252 2.0 7.0 0.00 0.00 0.00 82 1014.0
20260901021531 72 248 2.0 7.0 0.00 0.00 0.00 81 1013.7
20260901020011 72 257 3.0 8.0 0.00 0.00 0.00 79 1013.6
20260901014518 73 250 2.0 4.0 0.00 0.00 0.00 79 1013.5
20260901013034 75 218 2.0 4.0 0.00 0.00 0.00 75 1013.4
20260901011525 77 245 2.0 4.0 0.00 0.00 0.00 74 1013.2
20260901010012 78 238 3.0 7.0 0.00 0.00 0.00 67 1013.3
20260901004507 80 245 3.0 8.0 0.00 0.00 0.00 65 1013.2
20260901003029 81 232 4.0 9.0 0.00 0.00 0.00 62 1013.0
20260901001532 83 254 4.0 9.0 0.00 0.00 0.00 60 1012.9
20260901000014 85 259 5.0 8.0 0.00 0.00 0.00 60 1013.0
20260831234519 85 228 5.0 10.0 0.00 0.00 0.00 57 1013.1